Location: Aiyede
(8.4833°N, 4.4500°E)
Time: 09:35:47
(UTC+00:00)

CZ-4 R/B - Pass Details

Date: 24 September 2020
Orbit: 530 x 600 km, 97.7° (Epoch: 22 October)

Event Time Altitude Azimuth Distance (km) Brightness Sun altitude
Rises 18:35:51 0° 168° (SSE) 2,830 4.8 -15.4°
Reaches altitude 10° 18:38:00 10° 168° (SSE) 1,932 4.0 -16.0°
Maximum altitude 18:42:13 88° 78° (ENE) 603 1.4 -17.0°
Drops below altitude 10° 18:46:26 10° 349° (N) 1,931 4.2 -18.0°
Sets 18:48:35 0° 349° (N) 2,829 5.1 -18.6°
